Find Starlink 11616

NORAD ID: 63137 Int'l Des: 2025-043 Owner: SPXS Country: US Constellation: starlink operational
LEOCIRCULAR

Live Position

Loading 3D Globe...

About Starlink 11616

Description loading...

Upcoming Passes

Passes for default location (London). Set your location on the main map for personalized predictions.

Altitude History

Loading altitude history...

Two-Line Element Set

1 63137U 25043F 26125.45588426 .00300598 00000-0 22400-2 0 9997
2 63137 42.9992 268.2190 0005809 289.8599 70.1642 15.71065209 68401
Epoch: May 5, 2026 • Age: 12 hours

Current Status

Altitude 358.9 km
Velocity 7.70 km/s
Sub-Earth Point 36.06°N, 101.24°E
Launch Date Mar 3, 2025
Age 1.1 years
Type internet

Technical Details

Classification Payload
Mass 960.00 kg
Dry Mass 910.00 kg
Total Mass 960.00 kg
Length 0.30 m
Diameter 4.10 m
Span 29.00 m
Shape Box + pan
Manufacturer SPXS
Bus Type Starlink V2MD
Phase Status In Orbit
Owner/State SPXS/US

Most Searched